This demonstration page uses our WeatherBlox Daily Observations layout. Learn more.

Left ArrowRight Arrow

38.89511, -77.03637

Hourly Observations for December 25, 2020

Temp ( °F °C ) Dew Point ( °F °C ) Humidity (%) Winds ( mph kmh ) Pressure ( in mb ) Visibility ( mi km ) Precip ( " mm )
12:52 am 00:52 Cloudy with Light Rain 54 12.2 52 11.1 93 93 S 7 11 29.42 996 10 16 0.03 0.76
1:52 am 01:52 Cloudy 54 12.2 52 11.1 93 93 S 9 15 29.43 997 10 16 0.00 0.00
2:13 am 02:13 Cloudy with Rain 53 11.7 51 10.6 93 93 S 12 19 29.44 997 5 8 0.03 0.76
2:24 am 02:24 Cloudy with Light Rain 52 11.1 51 10.6 97 97 VRB 5 7 29.44 997 7 11 0.04 1.02
2:34 am 02:34 Cloudy with Light Rain 48 8.9 45 7.2 89 89 NW 22 35 29.46 998 10 16 0.04 1.02
2:41 am 02:41 Cloudy with Light Rain 46 7.8 43 6.1 89 89 NW 20 31 29.44 997 10 16 0.04 1.02
2:52 am 02:52 Cloudy with Light Rain 45 7.2 41 5 86 86 NNW 14 22 29.44 997 10 16 0.04 1.02
3:37 am 03:37 Cloudy with Light Rain 43 6.1 40 4.4 89 89 NNW 16 26 29.47 998 10 16 0.01 0.25
3:52 am 03:52 Cloudy with Rain 42 5.6 39 3.9 89 89 NNW 12 19 29.46 998 7 11 0.03 0.76
4:10 am 04:10 Cloudy with Light Rain 41 5 37 2.8 86 86 NNW 16 26 29.47 998 7 11 0.03 0.76
4:52 am 04:52 Cloudy with Light Rain 38 3.3 34 1.1 86 86 NNW 14 22 29.48 998 10 16 0.08 2.03
5:34 am 05:34 Cloudy 38 3.3 34 1.1 86 86 NW 18 30 29.52 1000 10 16 0.01 0.25
5:39 am 05:39 Cloudy 38 3.3 32 0 79 79 NW 25 41 29.50 999 10 16 0.01 0.25
5:45 am 05:45 Cloudy 37 2.8 31 -0.6 79 79 NW 18 30 29.54 1000 10 16 0.01 0.25
5:52 am 05:52 Cloudy 37 2.8 31 -0.6 79 79 NW 17 28 29.49 999 10 16 0.01 0.25
6:26 am 06:26 Cloudy 37 2.8 31 -0.6 79 79 NW 13 20 29.54 1000 10 16 0.00 0.00
6:52 am 06:52 Cloudy 36 2.2 30 -1.1 79 79 NW 12 19 29.55 1001 10 16 0.00 0.00
7:52 am 07:52 Cloudy 36 2.2 27 -2.8 70 70 NW 10 17 29.58 1002 10 16 0.00 0.00
8:52 am 08:52 Cloudy 35 1.7 24 -4.4 64 64 NW 16 26 29.61 1003 10 16 0.00 0.00
9:52 am 09:52 Cloudy 34 1.1 23 -5 64 64 NW 16 26 29.66 1004 10 16 0.00 0.00
10:52 am 10:52 Cloudy 33 0.6 19 -7.2 56 56 NW 18 30 29.65 1004 10 16 0.00 0.00
11:52 am 11:52 Cloudy with Light Snow 32 0 20 -6.7 61 61 W 16 26 29.67 1005 10 16 0.00 0.00
12:52 pm 12:52 Cloudy 32 0 19 -7.2 59 59 NW 13 20 29.69 1005 10 16 0.00 0.00
1:52 pm 13:52 Cloudy 32 0 16 -8.9 52 52 W 13 20 29.69 1005 10 16 0.00 0.00
2:52 pm 14:52 Mostly Cloudy 34 1.1 16 -8.9 48 48 WNW 10 17 29.72 1006 10 16 0.00 0.00
3:52 pm 15:52 Mostly Cloudy 32 0 16 -8.9 52 52 WNW 8 13 29.75 1007 10 16 0.00 0.00
4:52 pm 16:52 Cloudy 32 0 15 -9.4 50 50 W 15 24 29.78 1008 10 16 0.00 0.00
5:52 pm 17:52 Cloudy 30 -1.1 13 -10.6 49 49 W 18 30 29.84 1011 10 16 0.00 0.00
6:52 pm 18:52 Mostly Cloudy 28 -2.2 9 -12.8 44 44 W 16 26 29.88 1012 10 16 0.00 0.00
7:52 pm 19:52 Partly Cloudy 27 -2.8 8 -13.3 45 45 W 18 30 29.90 1013 10 16 0.00 0.00
8:52 pm 20:52 Partly Cloudy 27 -2.8 8 -13.3 45 45 WNW 12 19 29.93 1014 10 16 0.00 0.00
9:52 pm 21:52 Mostly Cloudy 26 -3.3 9 -12.8 48 48 W 9 15 29.96 1015 10 16 0.00 0.00
10:52 pm 22:52 Partly Cloudy 25 -3.9 7 -13.9 46 46 W 9 15 29.97 1015 10 16 0.00 0.00
11:52 pm 23:52 Partly Cloudy 24 -4.4 7 -13.9 48 48 WSW 7 11 29.97 1015 10 16 0.00 0.00

Powered by AerisWeather